Regional Weather Roundup
Issued by NWS

Home | Current Version | Previous Version | Text Only | Print | Product List | Glossary On
Versions: 1 2 3 4 5 6 7 8 9 10 11 12 13 14 15 16 17 18 19 20 21 22 23 24 25 26 27 28 29 30 31 32 33 34 35 36 37 38 39 40 41 42 43 44 45 46 47 48 49 50
000
ASUS44 KLUB 011310
RWRTX
WEST TEXAS WEATHER ROUNDUP
NATIONAL WEATHER SERVICE LUBBOCK TX
800 AM CDT WED APR 01 2015

NOTE: "FAIR" INDICATES FEW OR NO CLOUDS BELOW 12,000 FEET WITH NO
SIGNIFICANT WEATHER AND/OR OBSTRUCTIONS TO VISIBILITY.

TXZ004-006>008-010-012-014-016-OKZ002-011400-
TEXAS PANHANDLE/OKLAHOMA PANHANDLE

CITY           SKY/WX    TMP DP  RH WIND       PRES   REMARKS
AMARILLO       CLEAR     48  39  71 S9        29.84S
BORGER         CLEAR     54  46  74 S9        29.81R
CANADIAN       CLEAR     57  51  79 SE10      29.82S
DALHART        CLEAR     44  30  57 SW8       29.82S
DUMAS          CLEAR     46  38  75 S10       29.80S
GUYMON         CLEAR     48  43  82 S7        29.78R
HEREFORD       CLEAR     45  40  83 S7        29.85R
PAMPA          CLEAR     52  47  85 S15       29.83F
PERRYTON         N/A     51  48  89 S13       29.80S
$$

TXZ026-029-035-045-048-011400-
SOUTHERN PANHANDLE/SOUTH PLAINS/ROLLING PLAINS

CITY           SKY/WX    TMP DP  RH WIND       PRES   REMARKS
CHILDRESS      PTCLDY    54  52  93 SE9       29.84S
SEMINOLE       CLEAR     49  43  80 SW6       29.91R
LUBBOCK        PTCLDY    56  44  64 SW12      29.87R
PLAINVIEW      CLEAR     50  42  73 SW7       29.85R
SNYDER         CLOUDY    60  59  96 SE6       29.90S FOG
$$

TXZ052-054-060>062-072-078-127-140-154-169-011400-
PERMIAN BASIN/CONCHO VALLEY/BIG COUNTRY/EDWARDS PLATEAU

CITY           SKY/WX    TMP DP  RH WIND       PRES   REMARKS
ABILENE        CLOUDY    66  61  84 CALM      29.90F
BIG SPRING     CLOUDY    64  50  61 S6        29.91S
BRADY          CLEAR     63  63 100 SE6       29.92S
BROWNWOOD      MOCLDY    63  63 100 E3        29.92R FOG
JUNCTION       MOCLDY    64  62  93 CALM      29.93S
MIDLAND        PTCLDY    60  50  69 SW10      29.90R
ODESSA         CLEAR     58  50  75 SW10      29.90S
SAN ANGELO     CLOUDY    65  59  81 NW10      29.85F
SONORA         MOCLDY    63  63 100 S6        29.95S
SWEETWATER     CLOUDY    63  63 100 S7        29.92S
WINK           CLEAR     52  44  74 SE8       29.87S
$$

TXZ055-058-074-075-080-082-011400-
FAR WEST/SOUTHWEST MOUNTAINS/TRANS PECOS

CITY           SKY/WX    TMP DP  RH WIND       PRES   REMARKS
ALPINE         CLEAR     53  44  72 SW9       30.06R
DRYDEN           N/A     58  53  84 SW6       29.91R
EL PASO        FAIR      58  43  57 SW16      29.96R
FORT STOCKTON  CLEAR     57  47  69 SW13      29.92R
GUADALUPE PASS CLEAR     50  40  68 SW20      30.01R
MARFA          CLEAR     39  37  93 NE5       30.04R
PECOS          CLEAR     51  43  74 SW7       29.89S
PRESIDIO       FAIR      56  49  77 MISG      29.97R
$$

TXZ014-016-019-021>030-083-011400
TEXAS TECH WEST TEXAS MESONET/TEXAS PANHANDLE/NORTHERN SOUTH PLAINS

CITY           SKY/WX    TMP DP  RH WIND       PRES   REMARKS
ABERNATHY 5ENE   N/A     47  42  82 S7        29.88R
AMARILLO 9NNE    N/A     50  40  67 S5        29.82S
AMARILLO 7SSE    N/A     47  39  75 S5        29.84S
AMHERST 1NE      N/A     46  41  80 S7        29.87R
BOOTLEG 11WNW    N/A     47  35  64 W8        29.88R
CANADIAN 6E      N/A     55  50  83 E8        29.82S
CAPROCK CYN SP   N/A     54  45  71 S5        29.85S
CHILDRESS 2NNE   N/A     54  52  90 SE12      29.83S
CLARENDON 2WSW   N/A     54  49  84 SE10      29.84S
CLAUDE 12SW      N/A     51  46  84 SE6       29.85R
DIMMITT 2NE      N/A     46  40  79 SW7       29.85S
FLOYDADA 2NNE    N/A     53  41  65 S7        29.86S
FRIONA 2NE       N/A     41  37  84 W7        29.86R
GOODLETT 3W      N/A     55  52  90 S6        29.83R
HART 3N          N/A     44  38  78 S8        29.85S
HEREFORD 2NW     N/A     43  36  78 S6        29.84R
MCLEAN 1E        N/A     53  50  89 SE10      29.83S
MEMPHIS 1NE      N/A     50  47  88 NE2       29.84R
MULESHOE 2SSW    N/A     39  36  89 W6        29.86S WCI  35
OLTON 6S         N/A     46  40  78 S9        29.87R
PALO DURO SP     N/A     52  39  60 S9        29.86R
PAMPA 2E         N/A     49  47  93 SE13      29.83S
PLAINVIEW 1S     N/A     51  42  72 S8        29.86R
SILVERTON 7ESE   N/A     55  42  63 S8        29.86R
TULIA 2ENE       N/A     45  39  81 S10       29.85R
TURKEY 2WSW      N/A     51  48  88 SE7       29.83S
UMBARGER 3NNE    N/A     44  39  83 S8        29.85R
$$

TXZ033>036-039>041-045>048-011400
TEXAS TECH WEST TEXAS MESONET/SOUTH PLAINS

CITY           SKY/WX    TMP DP  RH WIND       PRES   REMARKS
AIKEN 3WSW       N/A     49  42  76 S10       29.88R
ANDREWS 2NE      N/A     56  49  77 S9        29.90S
ANTON 6SSW       N/A     47  42  81 S5        29.88S
BROWNFIELD 2S    N/A     53  45  76 S15       29.87S
DENVR CTY 7WNW   N/A     49  41  73 S7        29.88S
GAIL 2ESE        N/A     58  55  89 S6        29.88S
LAMESA 2SE       N/A     52  50  92 S6        29.90S
LEVELLAND 4S     N/A     48  40  74 S5        29.88R
LUBBOCK 3WNW     N/A     58  43  58 S9        29.88R
MORTON 1ENE      N/A     48  41  77 S6        29.86S
ODONNELL 1N      N/A     57  52  84 S12       29.89R
PLAINS 3N        N/A     50  42  74 SW9       29.89R
RALLS 1SE        N/A     52  44  72 S7        29.89R
REESE CENTER     N/A     49  42  77 S7        29.88R
SEAGRAVES 1SW    N/A     50  43  76 S8        29.88S
SEMINOLE 2NNE    N/A     55  44  66 S10       29.89S
SLATON 2NE       N/A     57  49  72 S17       29.87R
SNYDER 3E        N/A     60  59  94 S7        29.89S
SUNDOWN 8SW      N/A     47  41  77 SW7       29.88R
TAHOKA 3NNE      N/A     56  50  82 S12       29.89R
WOLFFORTH 6SSW   N/A     52  44  72 S9        29.88R
$$

TXZ031-032-036>038-042>044-011400-
TEXAS TECH WEST TEXAS MESONET/ROLLING PLAINS

CITY           SKY/WX    TMP DP  RH WIND       PRES   REMARKS
ASPERMONT 3NE    N/A     66  60  78 S10       29.86S
FLUVANNA 3WNW    N/A     61  55  79 S12       29.89S
GRAHAM 5SSW      N/A     61  52  73 S9        29.89R
GUTHRIE 10WSW    N/A     63  53  69 S14       29.84S
HASKELL 1NW      N/A     66  58  75 S7        29.86S
JAYTON 1SSE      N/A     65  58  79 S9        29.87S
KNOX CITY 3NW    N/A     67  55  65 S10       29.86R
LK A HENRY 1NW   N/A     62  55  78 SW8       29.87S
NORTHFIELD 1S    N/A     56  53  88 SE6       29.84R
ODELL 4ENE       N/A     57  56  95 SE12      29.85
PADUCAH 10SW     N/A     58  53  83 S12       29.84S
POST 1NE         N/A     60  50  69 S8        29.87R
RRING SPRGS 3N   N/A     56  49  77 S10       29.86R
SEYMOUR 3NW      N/A     62  55  80 SE7       29.85S
SPUR 1W          N/A     56  48  75 SW3       29.86S
WEINERT 2NNE     N/A     65  58  76 S9        29.86F
WHITE RVR 6NE    N/A     56  45  68 SE5       29.88R
$$

TXZ052-054-060>062-072-078-127-140-154-169-011400-
TEXAS TECH WEST TEXAS MESONET/PERMIAN BASIN/
CONCHO VALLEY/BIG COUNTRY/EDWARDS PLATEAU

CITY           SKY/WX    TMP DP  RH WIND       PRES   REMARKS
COYANOSA 2N      N/A     56  47  73 S8        29.89S
JUNCTION 1SSW    N/A     64  62  94 S2        29.93F
MERTZON 3NNE     N/A     60  56  86 S7        29.90R
SAN ANGELO 7NW   N/A     63  57  80 S5        29.88R
STRLNG CT 4WSW   N/A     61  53  74 N2        29.90R
ST LAWRNCE 5SW   N/A     59  51  74 S5        29.89S
SWEETWATR 11SW   N/A     61  59  95 SE2       29.91S
WALL 1E          N/A     64  58  80 E8        29.87F
$$

TXZ055-058-074-075-080-082-011400-
TEXAS TECH WEST TEXAS MESONET/FAR WEST/SOUTHWEST MOUNTAINS/TRANS PECOS

CITY           SKY/WX    TMP DP  RH WIND       PRES   REMARKS
PRSMN GAP BBNP   N/A     56  54  92 S2        29.97R
$$


USA.gov is the U.S. government's official web portal to all federal, state and local government web resources and services.